[Iaude] MPEC G31: 2023 FV54 [a=44.00,e=0.18,i=0.9,H=7.3]

mpec at cfa.harvard.edu mpec at cfa.harvard.edu
Wed Apr 3 16:20:10 EDT 2024


M.P.E.C. 2024-G31                                 Issued 2024 April 3, 20:18 UT

     The Minor Planet Electronic Circulars contain information on unusual
         minor planets, routine data on comets and natural satellites,
         and occasional editorial announcements.  They are published
    on behalf of Division F of the International Astronomical Union by the
          Minor Planet Center, Smithsonian Astrophysical Observatory,
                          Cambridge, MA 02138, U.S.A.
			  
             Prepared using the Tamkin Foundation Computer Network

                              MPC at CFA.HARVARD.EDU
            URL https://www.minorplanetcenter.net/    ISSN 1523-6714

                                   2023 FV54                                    


Observations:
     K23F54V*5C2023 03 21.25630 10 15 43.272+10 01 27.24         22.8 rVEG031568
     K23F54V 5C2023 03 21.45069 10 15 42.397+10 01 32.20         22.9 rVEG031568
     K23F54V  C2023 04 22.05418 10 13 57.220+10 11 46.29         23.0 rVEG031304
     K23F54V  C2023 04 22.12317 10 13 57.086+10 11 46.82         22.9 rVEG031304
     K23F54V  C2023 05 16.01824 10 13 35.270+10 14 12.50         22.9 rVEG031304
     K23F54V  C2023 05 18.05936 10 13 36.016+10 14 10.30         23.0 rVEG031304
     K23F54V  C2024 03 07.21328 10 23 10.385+09 17 42.18         23.0 rVEG031304
     K23F54V  C2024 03 08.24269 10 23 05.287+09 18 11.56         23.0 rVEG031304

Observer details:
304 Las Campanas Observatory.  Observer S. S. Sheppard.  6.5-m Magellan-Baade
    telescope + CCD.
568 Maunakea.  Observers S. S. Sheppard, D. J. Tholen, C. Trujillo.  Measurer
    S. S. Sheppard.  8.2-m Subaru reflector + CCD.

Orbital elements:
2023 FV54                                                                       
Epoch 2024 Mar. 31.0 TT = JDT 2460400.5                 Alexandersen            
M  30.60571              (2000.0)            P               Q                  
n   0.00337663     Peri.  186.91289     -0.36293290     -0.93168301             
a  44.0028107      Node   284.36848     +0.85569785     -0.32656896             
e   0.1783078      Incl.    0.92862     +0.36886433     -0.15912097             
P 292              H    7.30          G   0.15           U   8                  
Residuals in seconds of arc
230321 568  0.0   0.0     230422 304  0.1+  0.1-    240307 304  0.1+  0.0
230321 568  0.0   0.0     230516 304  0.1-  0.0     240308 304  0.1-  0.0
230422 304  0.1-  0.2+    230518 304  0.0   0.1-

Ephemeris:
2023 FV54                a,e,i = 44.00, 0.18, 1                  q = 36.1568
Date    TT    R. A. (2000) Decl.     Delta      r    Elong.  Phase     V
2024 03 04    10 23 26.4 +09 16 10  36.7256 37.7043   170.7     0.2    23.1
...
2024 03 19    10 22 14.3 +09 23 07  36.8019 37.7092   155.4     0.6    23.1
...
2024 03 27    10 21 39.7 +09 26 29  36.8683 37.7118   147.3     0.8    23.2
...
2024 04 02    10 21 16.2 +09 28 48  36.9288 37.7137   141.3     1.0    23.2
2024 04 03    10 21 12.5 +09 29 09  36.9398 37.7140   140.3     1.0    23.2
2024 04 04    10 21 08.9 +09 29 31  36.9509 37.7143   139.3     1.0    23.2
...
2024 04 10    10 20 48.7 +09 31 31  37.0225 37.7163   133.3     1.1    23.2
...
2024 04 18    10 20 26.1 +09 33 46  37.1293 37.7189   125.3     1.2    23.2
...
2024 05 03    10 19 59.0 +09 36 36  37.3570 37.7237   110.6     1.4    23.2

M. P. C. Staff               (C) Copyright 2024 MPC           M.P.E.C. 2024-G31





More information about the Iaude mailing list